Location: Killam
(52.7910°N, 111.8608°W)
Time: 22:48:44
(UTC+00:00)

SR - Pass Details

Date: 25 February 2026
Orbit: 572 x 849 km, 66.7° (Epoch: 11 March)

Event Time Altitude Azimuth Distance (km) Brightness Sun altitude
Exits shadow 09:57:05 13° 59° (ENE) 1,796 ? -38.2°
Drops below altitude 10° 09:57:43 10° 55° (NE) 2,016 ? -38.2°
Sets 10:00:17 0° 45° (NE) 2,974 ? -37.9°
